CYGFM07 (41890 NORAD) Tracking and Keplerian Element Data

This shows tracking and keplerian element data for the satellite.

Feedback or suggestion? Click here.




ElementValue
Catalog41890
NameCYGFM07
Epoch Orbit41474
Epoch Day159.78034451
Epoch Year2024
RAAN344.2025
Inclination34.9517
Eccentricity0.000798
Argument of Perigee132.6035
Mean Anonmoly227.5355
Mean Motion15.27876025
Decay Rate0.00014882
L11 41890U 16078G 24159.78034451 .00014882 00000+0 53311-3 0 9995
L22 41890 34.9517 344.2025 0007980 132.6035 227.5355 15.27876025414749



Live tracking and technical data element details for CYGFM07 (NORAD 41890). CYGFM07 can be tracked NOW for your location showing map with azimuth and elevation plus other details from your city location.







IsCatalogInMostPopularTable: catalog: 41890, numindb: 640
Update: records affected: 1



GetName: 41890 CYGFM07

Hit Count: updated at: Sun, 23 Jun 2024 01:00:28 GMT